NOAA 16 DEB, 41066

Orbit data source: Space-Track

NOAA 16 DEB, 41066 is space debris in SSO originally from a launch on Thu, 21 Sep 2000 UTC launched from the Air Force Western Test Range (AFWTR). Debris objects in space refer to the collection of defunct objects orbiting the Earth. Examples of debris include non-operational satellites, rocket bodies, and fragments generated from explosions, collisions, or faulty payload assembly.

Loading next visibility...
Identifier
41066, 2000-055Z
Orbit
SSO
Country
Flag of USUS
Related business
Manufacturer
Unknown
Mission
Spacecraft
Bus & Motor
Unknown
Mass
Unknown
Launch date (UTC)
2000-09-21 (25 years ago)
Launch vehicle
Unknown
Launch site
Air Force Western Test Range (AFWTR)
Object type
Payload
Rocket body
Debris
Shape & HBR
Unknown shape, 0.1 m
Radar Cross Section
Small (<0.1 m²)

Expand to show TLE details & history
Last TLE update: 1 day ago

TLE from 1 day ago
0 NOAA 16 DEB
1 41066U 00055Z   25348.69431347  .00001215  00000-0  58299-3 0  9991
2 41066  98.6774  66.5762 0016630  76.6637 283.6393 14.20689961519839
Epoch: 2025-12-14T16:39Z
TLE epoch observation values (Epoch: 2025-12-14T16:39:48.683Z)
Latitude
-0.00005°
Longitude
93.01981°
Altitude
823.131 km
Speed
7.443 km/s
True Right ascension
04h 26m 18s
True Declination
0° 00' 00"
Sunlit
Object was in full shadow at epoch
Visualization orbit readout
Latitude
Unknown
Longitude
Unknown
Altitude
Unknown
Speed
Unknown
Apparent Right ascension
Unknown
Apparent Declination
Unknown
Sunlit
N/A
Visualization observer readout
Local Sidereal Time
16:46:35
Azimuth
Unknown
Elevation
Unknown
Doppler factor
Unknown
Orbital elements
Apogee altitude
832.147 km
Perigee altitude
808.206 km
Semi-major axis
7,198.313 km
Eccentricity
0.00166
Inclination
98.6774°
RAAN
66.5762°
Arg. of periapsis
76.6637°
True anomaly
283.45402°
Mean anomaly
283.6393°
Eccentric anomaly
283.54667°
Mean motion
3.55383 °/min
Orbital period
101.3 mins
BSTAR
0.00058299
Loading maneuver chart data...
Computing Atmospheric mass density...

Documentation

Showing up to 5 results
|